Regional Weather Roundup
Issued by NWS

Home | Current Version | Previous Version | Text Only | Print | Product List | Glossary On
Versions: 1 2 3 4 5 6 7 8 9 10 11 12 13 14 15 16 17 18 19 20 21 22 23 24 25 26 27 28 29 30 31 32 33 34 35 36 37 38 39 40 41 42 43 44 45 46 47 48 49 50
000
ASUS43 KMKX 222014
RWRWI

WISCONSIN REGIONAL WEATHER ROUNDUP
NATIONAL WEATHER SERVICE MILWAUKEE/SULLIVAN WI
300 PM CDT FRI MAY 22 2015

NOTE: "FAIR" INDICATES FEW OR NO CLOUDS BELOW 12,000 FEET WITH NO
SIGNIFICANT WEATHER AND/OR OBSTRUCTIONS TO VISIBILITY.

WIZ001-002-006>008-014>016-023>028-222100-
NORTHWEST WISCONSIN

CITY           SKY/WX    TMP DP  RH WIND       PRES   REMARKS
SUPERIOR ARPT  SUNNY     56  38  51 NE7       30.19F
ASHLAND        SUNNY     69  31  24 CALM      30.21F
HAYWARD        SUNNY     70  29  21 VRB3      30.20F
SIREN          SUNNY     70  31  23 SW7       30.21S
CUMBERLAND     SUNNY     68  32  26 W8        30.22F
RICE LAKE      SUNNY     68  30  24 S3        30.23F
CHETEK         SUNNY     68  34  28 N3        30.22S
LADYSMITH      SUNNY     68  34  28 CALM      30.23S
EAU CLAIRE     SUNNY     70  31  23 VRB5      30.22S
MENOMONIE      SUNNY     70  30  22 W8        30.22S
NEW RICHMOND   SUNNY     70  31  24 E3        30.22S
OSCEOLA        SUNNY     70  35  26 NW6       30.24S
$$

WIZ003>005-009-010-017-018-222100-
NORTH CENTRAL WISCONSIN

CITY           SKY/WX    TMP DP  RH WIND       PRES   REMARKS
MANITOWISH WTR SUNNY     63  29  27 N5        30.21F
ARBOR VITAE    SUNNY     64  26  23 N10G16    30.22S
WOODRUFF       SUNNY     64  26  23 N10G16    30.22S
RHINELANDER    SUNNY     67  25  20 MISG      30.22S
EAGLE RIVER    SUNNY     65  15  14 NW9G16    30.20F
LAND O LAKES   SUNNY     65  13  13 W7        30.22S
PHILLIPS       SUNNY     66  31  26 W5        30.21S
TOMAHAWK       SUNNY     66  28  23 CALM      30.21S
MEDFORD        SUNNY     66  30  25 SW5       30.22S
MERRILL        SUNNY     67  32  27 NW5       30.22S
$$

WIZ029-030-035-036-043>047-222100-
CENTRAL WISCONSIN

CITY           SKY/WX    TMP DP  RH WIND       PRES   REMARKS
WAUSAU         SUNNY     68  33  27 W10       30.20F
MOSINEE        SUNNY     66  34  30 NW5       30.23S
MARSHFIELD     SUNNY     68  33  27 W9        30.22F
STEVENS POINT  SUNNY     66  32  28 W6        30.22F
WAUPACA        SUNNY     72  28  19 SW6       30.22S
WAUTOMA        SUNNY     71  28  20 N7        30.22S
WISC RAPIDS    SUNNY     72  26  18 N10       30.23F
CAMP DOUGLAS   SUNNY     71  34  25 W7        30.21S
$$

WIZ011>013-019>022-031-037>040-048>050-222100-
NORTHEAST WISCONSIN

CITY           SKY/WX    TMP DP  RH WIND       PRES   REMARKS
ANTIGO         SUNNY     65  31  28 W10       30.22S
SHAWANO        SUNNY     70  30  23 W9        30.21S
OCONTO         SUNNY     63  31  30 SE10      30.22F
STURGEON BAY   SUNNY     54  30  40 SE13      30.29S
GREEN BAY      SUNNY     68  32  26 N6        30.23F
MANITOWOC      SUNNY     52  33  48 SE10      30.28S
APPLETON       MOSUNNY   64  28  25 NW7       30.23F
CLINTONVILLE   SUNNY     70  28  21 W10G16    30.21S
OSHKOSH        SUNNY     65  35  33 E10       30.23S
$$

WIZ032>034-041-042-053>061-222100-
SOUTHWEST WISCONSIN

CITY           SKY/WX    TMP DP  RH WIND       PRES   REMARKS
LA CROSSE      SUNNY     73  35  25 VRB3      30.21S
SPARTA         SUNNY     72  31  22 CALM      30.22S
VIROQUA        SUNNY     72  34  25 NW6       30.22S
BOSCOBEL       SUNNY     74  35  24 CALM      30.20F
PRAIRIE DU CHI SUNNY     73  33  22 NE3       30.19F
PLATTEVILLE    SUNNY     73  36  26 SW7       30.21F
$$

WIZ056-057-062-063-064-067-068-222100-
SOUTH CENTRAL WISCONSIN

CITY           SKY/WX    TMP DP  RH WIND       PRES   REMARKS
REEDSBURG      SUNNY     70  37  29 SE5       30.21S
BARABOO/DELLS  SUNNY     71  31  22 SW5       30.21S
LONE ROCK      SUNNY     75  36  24 VRB3      30.20F
MINERAL POINT  SUNNY     73  32  21 SW3       30.22S
MADISON        MOSUNNY   71  38  29 VRB3      30.22S
MIDDLETON      SUNNY     73  27  18 NE6       30.22S
WATERTOWN      SUNNY     69  35  28 E3        30.22S
MONROE         SUNNY     72  37  28 NW3       30.22S
JANESVILLE     MOSUNNY   72  30  21 SW5       30.21S
$$

WIZ051-052-058>065-066-070>072-222100-
SOUTHEAST WISCONSIN

CITY           SKY/WX    TMP DP  RH WIND       PRES   REMARKS
MILWAUKEE      MOSUNNY   56  31  38 E9        30.27F
WAUKESHA       MOSUNNY   64  36  34 S6        30.24F
MILWAUKEE/TIMM SUNNY     61  19  20 SE9       30.26S
RACINE         SUNNY     56  26  31 E9        30.29S
BURLINGTON     SUNNY     67  34  29 E5        30.24S
KENOSHA        SUNNY     60  33  36 E10       30.27S
FOND DU LAC    SUNNY     67  33  28 NE10      30.23S
SHEBOYGAN      SUNNY     59  28  30 SE10      30.26S
WEST BEND      SUNNY     64  32  29 E12       30.24S
JUNEAU         SUNNY     67  33  28 W8G16     30.24S
$$

LSZ147-162-222100-
LAKE SUPERIOR

STATION/POSITION TIME  TEMP    WIND        PRES    WAVE
                       AIR SEA DIR/SP/G            HT/PER
                 (UTC) (F)     (DEG/KT/KT) (MB)    (FT/S)
W MID LAKE BUOY  1950   39 37  160/  6/  6   N/A     0
DEVILS ISLAND    2000   47      20/  3/  4   N/A
PORT WING        1800   46      20/  7/  7   N/A
SAXON HARBOR     1940   57        CALM       N/A
$$

LMZ867-665-643>646-222100-
LAKE MICHIGAN

STATION/POSITION TIME  TEMP    WIND        PRES    WAVE
                       AIR SEA DIR/SP/G            HT/PER
                 (UTC) (F)     (DEG/KT/KT) (MB)    (FT/S)
CHAMBERS ISLAND  1900   57     130/  5/  9   N/A
N MID LAKE BUOY  1950   39 36  160/  8/ 10   N/A     1
NORTHPORT PIER   1900   44     140/ 11/ 11   N/A
SISTER BAY       1817   54     150/ 12/ 14   N/A
KEWAUNEE LAKESHO 1900   45     130/  3/  7   N/A
SHEBOYGAN LAKESH 2000          120/ 11/ 12   N/A
PORT WASHINGTON  1900   47     120/  4/  7   N/A
ATWATER BUOY     1900   45 46  100/  6/  8   N/A
MILWAUKEE LAKESH 1900   46      80/  5/  6   N/A
S MID LAKE BUOY  1950   41 38  360/  8/  8   N/A
KENOSHA   LAKESH 2000   47      60/  8/ 10   N/A
$$

TC  - TEMPERATURE IN CELSIUS
VSB - VISIBILITY IN STATUTE MILES
WCI - WIND CHILL INDEX
HX  - HEAT INDEX



USA.gov is the U.S. government's official web portal to all federal, state and local government web resources and services.